{"data":{"norad_id":56191,"intl_designator":"2023-054P","name":"HAWK-7A","alt_names":[],"object_type":"PAYLOAD","status":"ACTIVE","operator":null,"country":"US","launch_date":"2023-04-15","launch_site_code":"AFWTR","launch_vehicle":null,"mission":null,"orbit_class":"UNKNOWN","rcs_meters":null,"size_class":null,"mass_kg":null,"dimensions":null,"purposes":["tech_demo"],"wikipedia_slug":null,"has_3d_model":false,"image_url":null,"decayed_at":null,"tle_current":{"epoch":"2026-09-19T14:54:15.259680Z","epoch_age_seconds":90376,"freshness":"FRESH","line1":"1 56191U 23054P   26262.62100995  .00003712  00000+0  13764-3 0  9992","line2":"2 56191  97.2540 147.5354 0004630  71.8893 288.2850 15.28209986191441","mean_motion":15.28209986,"eccentricity":0.000463,"inclination_deg":97.254,"raan_deg":147.5354,"arg_perigee_deg":71.8893,"mean_anomaly_deg":288.285,"bstar":0.00013764,"rev_number":19144,"period_min":94.227888391772,"perigee_km":477.98748333145,"apogee_km":484.33919544572,"semimajor_km":6859.3003393886,"source":"CELESTRAK","updated_at":"2026-09-20T09:00:47.451974Z"}}}